Regional Weather Roundup
Issued by NWS

Home | Current Version | Previous Version | Text Only | Print | Product List | Glossary On
Versions: 1 2 3 4 5 6 7 8 9 10 11 12 13 14 15 16 17 18 19 20 21 22 23 24 25 26 27 28 29 30 31 32 33 34 35 36 37 38 39 40 41 42 43 44 45 46 47 48 49 50
000
ASHW40 PHFO 012310
RWRHI

WEATHER ROUNDUP FOR HAWAII
NATIONAL WEATHER SERVICE HONOLULU HI
100 PM HST TUE SEP 01 2015

THIS IS AN AUTOMATED REPORT THAT HAS NOT BEEN QUALITY CONTROLLED.

NOTE..."FAIR" INDICATES FEW OR NO CLOUDS BELOW 12,000 FEET WITH NO
SIGNIFICANT WEATHER AND/OR OBSTRUCTIONS TO VISIBILITY.

* - THESE SITES REPORT LIMITED FIELDS

HIZ001>004-020000-
KAUAI-NIIHAU-

CITY           SKY/WX    TMP DP  RH WIND       PRES   REMARKS
LIHUE APT      MOSUNNY   86  80  82 N17       29.86F HX 101
PORT ALLEN*    NOT AVBL
POIPU*           N/A     88 N/A N/A N6G14       N/A
PRINCEVILLE*     N/A     86 N/A N/A MISG        N/A
KOKOLE POINT*  NOT AVBL
MOLOAA DAIRY*    N/A     90  81  74 N5G10       N/A  HX 108
WAIMEA HTS*    NOT AVBL
PUU OPAE*      NOT AVBL
PUU LUA*       NOT AVBL
MAKAHA RIDGE*  NOT AVBL
$$

HIZ005>011-020000-
OAHU-

CITY           SKY/WX    TMP DP  RH WIND       PRES   REMARKS
HONOLULU       MOSUNNY   86  75  69 SW13      29.81F HX  95
KALAELOA       PTSUNNY   88  73  61 S8        29.83F HX  95
KANEOHE MCB    SUNNY     86  74  67 NW10      29.79F HX  94
WHEELER FIELD  FAIR      84  74  71 NW10      29.83F HX  91
BELLOWS*       NOT AVBL
KAHUKU*        NOT AVBL
WHEELER*       NOT AVBL
WAIANAE HARBOR NOT AVBL
DILLINGHAM*      N/A     75  61  60 MISG        N/A
KAHUKU TRN*      N/A     84  73  70 W5G13       N/A  HX  91
KAWAILOA*        N/A     84  73  70 N8G15       N/A  HX  91
KII*             N/A     86  75  70 W10G17      N/A  HX  95
MAKUA RANGE*     N/A     90  72  55 NE8G20      N/A  HX  96
OAHU FOREST NW NOT AVBL
SCHOFIELD BRK*   N/A     73  64  73 MISG        N/A
SCHOFIELD S*   NOT AVBL
WAIANAE VLY*   NOT AVBL
KUAOKALA*      NOT AVBL
HONOULIUULI*   NOT AVBL
MOKUOLOE IS*   NOT AVBL
PALEHUA*       NOT AVBL
WAIAWA PHB*    NOT AVBL
$$

HIZ012>013-020000-
MOLOKAI-

CITY           SKY/WX    TMP DP  RH WIND       PRES   REMARKS
MOLOKAI AIRPT  MOSUNNY   86  72  62 NW12G17   29.83F HX  92
KALAUPAPA      NOT AVBL
MAKAPULAPAI*   NOT AVBL
MOLOKAI 1*     NOT AVBL
PUU ALII*      NOT AVBL
$$

HIZ016-020000-
KAHOOLAWE-

CITY           SKY/WX    TMP DP  RH WIND       PRES   REMARKS
KAHOOLAWE*     NOT AVBL
HAKIOAWA*      NOT AVBL
HONOKANAIA*      N/A     87  74  65 W7        29.78F HX  96
KANELOA*         N/A     88  75  66 SW9G17    29.91F HX  97
KEALIALALO*    NOT AVBL
LUA MAKIKA*    NOT AVBL
$$

HIZ014>015-020000-
LANAI-

CITY           SKY/WX    TMP DP  RH WIND       PRES   REMARKS
LANAI CITY     PTSUNNY   81  75  83 NW13      29.88F
LANAI 1*       NOT AVBL
$$

HIZ017>028-020000-
MAUI-

CITY           SKY/WX    TMP DP  RH WIND       PRES   REMARKS
KAHULUI        MOSUNNY   91  73  55 N12       29.80F HX  99
KAPALUA-W MAUI MOSUNNY   88  73  62 SW8       29.82  HX  96
HANA AIRPORT   MOSUNNY   86  73  66 NW6       29.84R HX  93
HANA*          NOT AVBL
HALEAKALA SUMM   N/A     52  48  87 NW18G38     N/A
MAALAEA BAY*   NOT AVBL
HALEAKALA*     NOT AVBL
KAUPO GAP*     NOT AVBL
KULA 1*          N/A     68  60  74 NW6G13      N/A
$$

HIZ023>026-020000-
BIG ISLAND OF HAWAII COAST AND LOWER SLOPES-

CITY           SKY/WX    TMP DP  RH WIND       PRES   REMARKS
KAILUA KONA    MOSUNNY   89  76  65 SW10      29.82F HX 100
HILO           MOSUNNY   90  79  70 N14       29.80F HX 106
HONOKAA*       NOT AVBL
KAWAIHAE MWT*  NOT AVBL
KAWAIHAE*        N/A     84 N/A N/A W6          N/A
SOUTH POINT*   NOT AVBL
UPOLU AIRPORT* NOT AVBL
KAMUELA*       NOT AVBL
HAKALAU*         N/A     66  63  91 E3G10       N/A
KALOKO-HONOKO* NOT AVBL
PALI 2*          N/A     75  73  94 S8G14       N/A
KEALAKOMO*     NOT AVBL
KAUPULEHU*     NOT AVBL
KAPAPALA*        N/A     85  76  75 SE5G12      N/A  HX  95
LOWER KAHUKU*  NOT AVBL
PUHE CS*       NOT AVBL
PUHO CS*       NOT AVBL
PTA KEAMUKU*     N/A     73  68  83 CALM        N/A
WAIKOLOA*      NOT AVBL
$$

HIZ027>028-020000-
BIG ISLAND OF HAWAII INTERIOR AND SUMMMITS-

CITY           SKY/WX    TMP DP  RH WIND       PRES   REMARKS
BRADSHAW FIELD SUNNY     72  60  65 W10G18    30.23F
MK VISITOR CEN   N/A     59  50  72 W13         N/A
MAUNA KEA*       N/A     46  30  53 NW13G26     N/A
MAUNA LOA*       N/A     57  45  62 MISG        N/A
MAUNA LOA 1*   NOT AVBL
PTA KIPUKA*      N/A     73  64  73 NW8         N/A
PTA RANGE 17*    N/A     72  63  73 W12         N/A
PTA WEST*        N/A     72  68  88 NW12G17     N/A
NENE CABIN*    NOT AVBL
AHUMOA*        NOT AVBL
PTA PORTABLE*  NOT AVBL
PUU MALI*        N/A     64  61  88 W16G24      N/A
$$

HIC003-020000-
NORTHWEST ISLANDS-

CITY           SKY/WX    TMP DP  RH WIND       PRES   REMARKS
MIDWAY ISLAND  MOSUNNY   88  79  74 E10       29.99S HAZE    HX 102
MIDWAY NOS*    NOT AVBL
FRENCH FRIGATE NOT AVBL
$$

PHZ110>124-180-020000-
BUOY REPORTS

STATION/POSITION TIME  TEMP    WIND        PRES    WAVE   SWELL
                       AIR SEA DIR/SP/G            HT/PER HT/DIR
                 (UTC) (F)     (DEG/KT/KT) (MB)    (FT/S) (FT/D)
BUOY 51001       2243   82 83   50/ 14/ 17 1013.3    7/13   7/100
BUOY 51101       2300   82 83   70/ 14/ 16 1012.6F   8/14   7/ 90
BUOY 51100       NOT AVBL
BUOY 51002       2300   83     160/  2/  4 1010.8F   5/11   5/ 40
BUOY 51003       2300   83 86   80/  4/  6 1010.9F   8/13   8/ 70
BUOY 51004       2215   83 87  130/  4/  8 1011.5F   8/16   8/110
BARBERS PT BUOY  NOT AVBL
WAIMEA BAY BUOY  2300      83                N/A     7/ 9   3/ 50
KAILUA BAY BUOY  2300      84                N/A    11/13   8/ 70
LANAI BUOY       NOT AVBL
BARBERS PT 2     2300      83                N/A     3/11   2/220
PAUWELA MAUI     2300      82                N/A    10/12   7/ 60
HILO             NOT AVBL
KANEOHE BAY BUOY 2300      83                N/A    10/11   7/ 70
HANALEI KAUAI    2300      83                N/A     8/12   5/ 90
KAHULUI HARBOR   2300   84 85   10/  7/  9 1009.0F
HONOLULU HARBOR  2300   83 83  230/  8/  9 1009.9F
KILO NALU        NOT AVBL
HILO HARBOR      2300   83 81   10/ 13/ 14 1008.7F
MOKUOLOE         2300   84 85  350/ 10/ 11 1010.2S
NAWILIWILI       2300   83 84   40/ 16/ 20 1010.6F
WHOTS BUOY       NOT AVBL
BUOY 51028       NOT AVBL
$$

......................KEY........................................
  SKY/WX - SKY CONDITIONS/PRESENT WEATHER
  TMP    - TEMPERATURE IN FAHRENHEIT
  DWPT   - DEWPOINT IN FAHRENHEIT
  RH     - RELATIVE HUMIDITY IN PERCENT
  WIND   - DIRECTION AND SPEED /MPH FOR ISLANDS...KTS FOR BUOYS/
  PRES   - MEAN SEA LEVEL PRESSURE IN INCHES OF HG
  VSB    - VISIBILITY IN MILES
  HX     - HEAT INDEX
  WCI    - WIND CHILL INDEX
  VRB    - VARIABLE WIND DIRECTION
  N/A    - NOT AVAILABLE



USA.gov is the U.S. government's official web portal to all federal, state and local government web resources and services.